Regional Weather Roundup
Issued by NWS Grand Forks, ND

Home | Current Version | Previous Version | Graphics & Text | Print | Product List | Glossary On
Versions: 1 2 3 4 5 6 7 8 9 10 11 12 13 14 15 16 17 18 19 20 21 22 23 24 25 26 27 28 29 30 31 32 33 34 35 36 37 38 39 40 41 42 43 44 45 46 47 48 49 50
000
ASUS43 KFGF 281031
RWRFGF
PRAIRIE TO PINES  WEATHER ROUNDUP
NATIONAL WEATHER SERVICE EASTERN NORTH DAKOTA/GRAND FORKS ND
500 AM CDT TUE JUL 28 2015

 **SATELLITE DATA USED TO AUGMENT SKY COVER AT AUTOMATED STATIONS**
 *****  WEATHER ACROSS EASTERN NORTH DAKOTA  *****

CITY           SKY/WX    TMP DP  RH WIND       PRES   REMARKS
GRAND FORKS    CLOUDY    74  71  91 SE17      29.58F
GRAND FRKS AFB CLOUDY    75  72  90 S15       29.57F
GRAND FRKS NWS   N/A     73 N/A N/A SE18        N/A
DEVILS LAKE    CLOUDY    73  63  68 SW10      29.55R
FARGO          RAIN      73  70  90 SE15      29.65F FOG
WAHPETON ARPT  CLOUDY    68  64  88 SE14      29.60F
$$

 ***** WEATHER ACROSS CENTRAL AND WESTERN NORTH DAKOTA  *****

CITY           SKY/WX    TMP DP  RH WIND       PRES   REMARKS
BISMARCK       MOCLDY    64  58  80 W12       29.67R
MINOT          MOCLDY    67  58  72 SW15G22   29.56R
JAMESTOWN      CLOUDY    69  64  84 SW12      29.62R
MINOT AFB      CLOUDY    66  63  88 W16G25    29.55R
GARRISON         N/A     62  58  86 W14G24    29.60R
WILLISTON      MOCLDY    60  55  83 SW25G35   29.58S
DICKINSON      CLOUDY    58  53  84 W25G33    29.70R
HETTINGER      PTCLDY    55  49  80 W21G31    29.80R
$$

 *****  OTHER AIRPORT OBSERVATIONS IN OUR AREA  *****

CITY           SKY/WX    TMP DP  RH WIND       PRES   REMARKS
WALHALLA       FAIR      73  73 100 MISG      29.54F
GRAFTON AIRPOR CLOUDY    73  73 100 SE14G20   29.56F
VALLEY CITY AR FAIR      68  68 100 S10       29.58R
CANDO          FAIR      72  68  88 S9        29.54F
CAVALIER APRT  CLOUDY    73  72  94 SE9G17    29.55F
GWINNER          N/A     68  68 100 E12       29.60R
SHEYENNE NWR     N/A     67  66  97 E8        29.95
ROLLA          FAIR      72  72 100 SW8       29.54F
 ***** THE ABOVE OBSERVATIONS ARE NON NWS ARE NOT QUALITY
       CONTROLLED AND MAY MIS-REPORT RAIN FOR SNOW...
$$

  *****  WEATHER ACROSS NORTHERN MINNESOTA  *****

CITY           SKY/WX    TMP DP  RH WIND       PRES   REMARKS
FLAG ISLAND    PTCLDY    75  70  83 SE20      29.69F
WARROAD        CLOUDY    72  70  94 SE9       29.69S
ROSEAU         MOCLDY    73  68  83 SE8       29.66S
HALLOCK        CLOUDY    73  72  94 SE16G23   29.57F
THF RVR FALLS  CLOUDY    73  70  88 SE13      29.65S
BAUDETTE       MOCLDY    71  67  87 SE10      29.72F
WASKISH        CLOUDY    72  70  94 SE6       29.73S
CROOKSTON      CLOUDY    75  72  88 S15G24    29.64R THUNDER
STEPHEN NDAWN    N/A     75  72  88 SE13        N/A
GREENBUSH NDAW   N/A     73  70  88 SE10        N/A
$$
  *****  WEATHER ACROSS CENTRAL AND WEST MINNESOTA  *****

CITY           SKY/WX    TMP DP  RH WIND       PRES   REMARKS
FOSSTON        CLOUDY    73  66  78 S15G21    29.70R
BEMIDJI        CLOUDY    73  69  88 SE12      29.74S
PARK RAPIDS    TSTM      73  68  84 S20G26    29.76R
ELBOW LAKE     RAIN      68  68  99 E9        29.70F
WADENA         TSTM      70  66  88 S8        29.77R
DETROIT LAKES  TSTM      72  68  88 S15G21    29.75R
MOORHEAD       RAIN      72  70  94 S7        29.65F
FERGUS FALLS   TSTM      70  70 100 SE13      29.70F
MORRIS MN      RAIN      70  70 100 E14       29.67F
STAPLES        TSTM      72  68  88 S6        29.76F
$$
  *****  WEATHER ELSEWHERE ACROSS MINNESOTA  *****

CITY           SKY/WX    TMP DP  RH WIND       PRES   REMARKS
DULUTH         PTCLDY    70  65  84 SE9       29.86F
INTRNTL FALLS  PTCLDY    69  66  90 SE9       29.77F
ELY            CLEAR     68  63  83 SE7       29.87F
CLOQUET        CLEAR     68  64  88 E5        29.86S
WHEATON        LGT RAIN  66  64  94 NE10      29.61F
BRAINERD       CLOUDY    73  69  87 SE7       29.78F
HIBBING        MOCLDY    68  65  90 SE8       29.85R
ALEXANDRIA     HVY RAIN  67  65  93 SE6       29.78F FOG
SAINT CLOUD    CLOUDY    74  70  87 SE10G20   29.74F THUNDER
MINNEAPOLIS    MOCLDY    74  70  87 SE12      29.80F
$$

  *****  WEATHER ACROSS SOUTH DAKOTA  *****

CITY           SKY/WX    TMP DP  RH WIND       PRES   REMARKS
SIOUX FALLS    LGT RAIN  70  68  93 E17G23    29.71F
BROOKINGS      CLOUDY    70  64  83 SE17      29.75F
WATERTOWN      LGT RAIN  68  64  87 NE15      29.63F
HURON          CLOUDY    68  67  96 SE6       29.68S
SISSETON         N/A     67  67 100 E10       29.59F
ABERDEEN       CLOUDY    69  65  86 SW12      29.67R
MITCHELL       CLOUDY    70  68  93 CALM      29.72R
PIERRE         CLOUDY    65  59  81 NW22      29.75R
MOBRIDGE       CLOUDY    66  62  87 W14       29.71R
RAPID CITY     CLEAR     55  46  71 NW9       29.90R
$$

  *****  SOME WEATHER IN NEARBY STATES *****

CITY           SKY/WX    TMP DP  RH WIND       PRES   REMARKS
GLASGOW MT     LGT RAIN  55  53  93 W25G37    29.63F
GREAT FALLS MT LGT RAIN  50  47  89 SW10      30.03R
CHEYENNE WY    CLEAR     58  29  33 NW16G28   30.12R
SCOTTSBLUFF NE CLEAR     56  48  74 W8        30.01R
OMAHA NE       PTCLDY    77  72  84 S15       29.76F
DES MOINES IA  PTCLDY    74  69  85 S9        29.85F
DAVENPORT IA   CLEAR     71  68  90 E7        29.94F
CHICAGO IL     CLEAR     69  66  90 CALM      29.98F
EAU CLAIRE WI  CLEAR     71  65  81 SE7       29.89F
LA CROSSE WI   CLEAR     72  65  78 SE7       29.90F
$$

  *****  SOME NATIONAL WEATHER *****

CITY           SKY/WX    TMP DP  RH WIND       PRES   REMARKS
LA GUARDIA NY  PTCLDY    77  69  76 CALM      29.99S
RALEIGH NC     PTCLDY    74  71  91 CALM      30.00S
ATLANTA GA     PTCLDY    77  71  82 CALM      29.98S
NEW ORLEANS LA PTCLDY    79  74  84 NW3       29.96S
OKLAHOMA CITY  CLEAR     75  69  81 S7        29.90R
ALBUQUERQUE NM MOCLDY    76  51  41 S6        30.09R
SALT LAKE CITY CLEAR     56  39  53 W6        30.19R
LOS ANGELES CA MOCLDY    67  62  84 CALM      29.88F
BOISE ID       CLEAR     54  36  50 SE3       30.20R
SEATTLE WA     MOCLDY    60  52  74 NE10      30.27R
$$

*** WEATHER ACROSS MANITOBA...SASKATCHEWAN AND ONTARIO ***
                ***ONTARIO***

CITY           SKY/WX    TMP DP  RH WIND       PRES   REMARKS
GERALDTON      CLEAR     59  54  82 S2        29.96S
THUNDER BAY    PTCLDY    61  59  94 NE6       29.92F
SIOUX LOOKOUT  PTCLDY    68  63  83 SE6       29.84F
TORONTO        PTCLDY    68  59  73 NW6       30.02S
BIG TROUT LK   MOCLDY    57  55  94 E2        29.85F
PICKLE LAKE    NOT AVBL
DRYDEN         CLEAR     70  63  78 SE10      29.82F
KENORA         PTCLDY    72  68  88 SE10      29.75F
$$
                *** MANITOBA***

CITY           SKY/WX    TMP DP  RH WIND       PRES   REMARKS
BRANDON        LGT RAIN  73  72  94 S14       29.50F
DAUPHIN        CLOUDY    63  63 100 N7        29.51F
ISLAND LAKE    MOCLDY    68  61  77 E3        29.79F
PILOT MOUND      N/A     72  70  94 S13         N/A
THE PAS        PTCLDY    63  61  94 SE2       29.78R
THOMPSON       MOCLDY    55  54  94 VRB2      29.81R
WINNIPEG       MOCLDY    75  70  83 SE14G24   29.58F
LYNN LAKE      CLEAR     55  52  88 SW5       29.78F
CHURCHILL      FOG       50  50 100 NE9       29.77R VSB 1/8
GILLAM         MOCLDY    59  55  88 SW3       29.81F
$$
                ***SASKATCHEWAN***

CITY           SKY/WX    TMP DP  RH WIND       PRES   REMARKS
ESTEVAN        CLOUDY    63  59  88 SW17G29   29.47F
KINDERSLEY     LGT RAIN  55  54  94 NW10G17   29.79S
LLOYDMINSTER   CLOUDY    55  46  71 NW12      29.85S
PRINCE ALBERT  LGT RAIN  57  55  94 NE12      29.70F
REGINA         LGT RAIN  61  61 100 E8        29.39F
YORKTON        CLOUDY    63  61  94 E12G18    29.43F
N. BATTLEFORD  LGT RAIN  57  57 100 NW10      29.77F
LA RONGE       NOT AVBL
SASKATOON      LGT RAIN  57  55  94 N18G28    29.65F
SWIFT CURRENT  LGT RAIN  54 N/A N/A N24G36    29.62F
$$
NOTE: THESE ARE AUTOMATED STATIONS WITH LIMITED QUALITY CONTROL
      "FAIR" INDICATES FEW OR NO CLOUDS BELOW 12,000 FEET WITH NO
      SIGNIFICANT WEATHER AND/OR OBSTRUCTIONS TO VISIBILITY.
      SKY/WX - SKY CONDITION AND SIGNIFICANT WEATHER.
      TMP - AIR TEMPERATURE.    DP   - DEWPOINT TEMPERATURE.
      RH  - RELATIVE HUMIDITY.  PRES - PRESSURE.
      HX  - HEAT INDEX.         WCI  - WIND CHILL INDEX.
$



USA.gov is the U.S. government's official web portal to all federal, state and local government web resources and services.